When you browse on this site, cookies collect data to enhance your experience and personalize the content and advertising you see.
Visit our Privacy Policy to learn more. By continuing to use the site, you agree to this use of cookies and data.
  • In Hungary
  • List of Countries
  • For 7 days
  • Water Temperature
  • Satellite Maps
  • Weather Map
  • News
  • Weather Widgets
  • user-avatar
    Login

    Hourly Weather Triandria

    Today, 15 December, Saturday

    Time Temperature Precipitation Wind Pressure Humidity
    00:00 +9°C° 0 mm 2 mps 755 mmHg 91%
    01:00 +9°C° 0 mm 2 mps 755 mmHg 92%
    02:00 +9°C° 0 mm 1 mps 755 mmHg 90%
    03:00 +9°C° 0 mm 1 mps 755 mmHg 91%
    04:00 +9°C° 0 mm 2 mps 755 mmHg 91%
    05:00 +9°C° 0 mm 2 mps 755 mmHg 91%
    06:00 +9°C° 0 mm 2 mps 755 mmHg 91%
    07:00 +9°C° 0 mm 2 mps 755 mmHg 91%
    08:00 +9°C° 0 mm 2 mps 754 mmHg 91%
    09:00 +9°C° 0.1 mm 2 mps 754 mmHg 89%
    10:00 +10°C° 0.1 mm 2 mps 754 mmHg 88%
    11:00 +10°C° 0.1 mm 2 mps 754 mmHg 86%
    12:00 +12°C° 0.1 mm 2 mps 754 mmHg 85%
    13:00 +13°C° 0.1 mm 2 mps 753 mmHg 84%
    14:00 +12°C° 0 mm 2 mps 753 mmHg 85%
    15:00 +12°C° 0.1 mm 2 mps 753 mmHg 86%
    16:00 +12°C° 0.1 mm 1 mps 752 mmHg 88%
    17:00 +12°C° 0.1 mm 1 mps 752 mmHg 89%
    18:00 +12°C° 0.1 mm 1 mps 752 mmHg 90%
    19:00 +12°C° 0.1 mm 1 mps 752 mmHg 91%
    20:00 +12°C° 0.1 mm 2 mps 752 mmHg 92%
    21:00 +12°C° 0.3 mm 2 mps 752 mmHg 92%
    22:00 +12°C° 0.3 mm 2 mps 751 mmHg 92%
    23:00 +12°C° 0.3 mm 2 mps 751 mmHg 92%

    Tomorrow, 16 December, Sunday

    Time Temperature Precipitation Wind Pressure Humidity
    00:00 +12°C° 0.4 mm 2 mps 751 mmHg 92%
    01:00 +12°C° 0.4 mm 2 mps 751 mmHg 92%
    02:00 +12°C° 0.4 mm 2 mps 751 mmHg 92%
    03:00 +12°C° 0.6 mm 2 mps 751 mmHg 92%
    04:00 +10°C° 0.6 mm 2 mps 751 mmHg 92%
    05:00 +10°C° 0.6 mm 2 mps 750 mmHg 93%
    06:00 +10°C° 0.5 mm 2 mps 750 mmHg 93%
    07:00 +10°C° 0.5 mm 2 mps 750 mmHg 92%
    08:00 +10°C° 0.5 mm 2 mps 750 mmHg 92%
    09:00 +12°C° 0.2 mm 2 mps 751 mmHg 87%
    10:00 +13°C° 0.2 mm 2 mps 751 mmHg 82%
    11:00 +14°C° 0.2 mm 2 mps 751 mmHg 77%
    12:00 +13°C° 0.4 mm 3 mps 751 mmHg 75%
    13:00 +12°C° 0.4 mm 4 mps 751 mmHg 73%
    14:00 +12°C° 0.4 mm 5 mps 751 mmHg 72%
    15:00 +10°C° 0.3 mm 5 mps 752 mmHg 71%
    16:00 +9°C° 0.3 mm 5 mps 752 mmHg 71%
    17:00 +8°C° 0.3 mm 5 mps 753 mmHg 71%
    18:00 +7°C° 0.1 mm 5 mps 753 mmHg 71%
    19:00 +7°C° 0.1 mm 5 mps 754 mmHg 71%
    20:00 +6°C° 0.1 mm 5 mps 754 mmHg 70%
    21:00 +5°C° 0 mm 5 mps 755 mmHg 70%
    22:00 +5°C° 0 mm 4 mps 755 mmHg 70%
    23:00 +4°C° 0 mm 4 mps 755 mmHg 70%

    Day after tomorrow, 17 December, Monday

    Time Temperature Precipitation Wind Pressure Humidity
    00:00 +4°C° 0 mm 4 mps 755 mmHg 69%
    01:00 +4°C° 0 mm 4 mps 755 mmHg 69%
    02:00 +4°C° 0 mm 4 mps 755 mmHg 68%
    03:00 +3°C° 0 mm 3 mps 755 mmHg 67%
    04:00 +3°C° 0 mm 3 mps 755 mmHg 67%
    05:00 +3°C° 0 mm 3 mps 755 mmHg 66%
    06:00 +3°C° 0 mm 3 mps 755 mmHg 64%
    07:00 +4°C° 0 mm 2 mps 755 mmHg 63%
    08:00 +4°C° 0 mm 2 mps 755 mmHg 61%
    09:00 +6°C° 0 mm 2 mps 755 mmHg 58%
    10:00 +7°C° 0 mm 2 mps 755 mmHg 55%
    11:00 +8°C° 0 mm 2 mps 755 mmHg 51%
    12:00 +9°C° 0 mm 1 mps 755 mmHg 50%
    13:00 +10°C° 0 mm 1 mps 754 mmHg 50%
    14:00 +11°C° 0 mm 1 mps 754 mmHg 49%
    15:00 +10°C° 0 mm 1 mps 754 mmHg 53%
    16:00 +10°C° 0 mm 1 mps 754 mmHg 58%
    17:00 +8°C° 0 mm 2 mps 754 mmHg 62%
    18:00 +9°C° 0.1 mm 1 mps 754 mmHg 65%
    19:00 +9°C° 0.1 mm 1 mps 754 mmHg 67%
    20:00 +9°C° 0.1 mm 1 mps 755 mmHg 70%
    21:00 +8°C° 0.2 mm 1 mps 755 mmHg 72%
    22:00 +8°C° 0.2 mm 1 mps 755 mmHg 73%
    23:00 +8°C° 0.2 mm 1 mps 754 mmHg 75%

    18 December, Tuesday

    Time Temperature Precipitation Wind Pressure Humidity
    00:00 +7°C° 0.3 mm 2 mps 754 mmHg 76%
    01:00 +7°C° 0.3 mm 2 mps 754 mmHg 78%
    02:00 +7°C° 0.3 mm 3 mps 754 mmHg 79%
    03:00 +7°C° 0.9 mm 3 mps 754 mmHg 80%
    04:00 +6°C° 0.9 mm 4 mps 754 mmHg 81%
    05:00 +6°C° 0.9 mm 4 mps 754 mmHg 83%
    06:00 +6°C° 1.2 mm 4 mps 754 mmHg 83%
    07:00 +5°C° 1.2 mm 4 mps 754 mmHg 83%
    08:00 +5°C° 1.2 mm 4 mps 755 mmHg 82%
    09:00 +5°C° 1.2 mm 5 mps 755 mmHg 81%
    10:00 +6°C° 1.2 mm 5 mps 755 mmHg 80%
    11:00 +6°C° 1.2 mm 5 mps 755 mmHg 79%
    12:00 +6°C° 1 mm 5 mps 755 mmHg 77%
    13:00 +6°C° 1 mm 5 mps 755 mmHg 76%
    14:00 +6°C° 1 mm 5 mps 755 mmHg 75%
    15:00 +6°C° 0.5 mm 5 mps 755 mmHg 75%
    16:00 +6°C° 0.5 mm 5 mps 756 mmHg 75%
    17:00 +6°C° 0.5 mm 5 mps 756 mmHg 75%
    18:00 +6°C° 0.3 mm 5 mps 757 mmHg 75%
    19:00 +6°C° 0.3 mm 4 mps 757 mmHg 75%
    20:00 +5°C° 0.3 mm 4 mps 758 mmHg 75%
    21:00 +5°C° 0.1 mm 4 mps 758 mmHg 74%
    22:00 +5°C° 0.1 mm 4 mps 759 mmHg 74%
    23:00 +5°C° 0.1 mm 4 mps 759 mmHg 74%

    19 December, Wednesday

    Time Temperature Precipitation Wind Pressure Humidity
    00:00 +4°C° 0 mm 4 mps 759 mmHg 74%
    01:00 +4°C° 0 mm 4 mps 759 mmHg 75%
    02:00 +4°C° 0 mm 4 mps 759 mmHg 75%
    03:00 +4°C° 0 mm 3 mps 759 mmHg 75%
    04:00 +3°C° 0 mm 3 mps 759 mmHg 76%
    05:00 +3°C° 0 mm 3 mps 759 mmHg 76%
    06:00 +3°C° 0.1 mm 3 mps 759 mmHg 76%
    07:00 +3°C° 0.1 mm 3 mps 759 mmHg 76%
    08:00 +3°C° 0.1 mm 3 mps 760 mmHg 76%
    09:00 +4°C° 0 mm 3 mps 760 mmHg 73%
    10:00 +5°C° 0 mm 3 mps 760 mmHg 69%
    11:00 +7°C° 0 mm 2 mps 760 mmHg 66%
    12:00 +7°C° 0 mm 3 mps 759 mmHg 64%
    13:00 +8°C° 0 mm 3 mps 759 mmHg 63%
    14:00 +9°C° 0 mm 3 mps 759 mmHg 61%
    15:00 +8°C° 0 mm 3 mps 759 mmHg 64%
    16:00 +7°C° 0 mm 2 mps 759 mmHg 67%
    17:00 +7°C° 0 mm 2 mps 760 mmHg 69%
    18:00 +6°C° 0 mm 2 mps 760 mmHg 72%
    19:00 +6°C° 0 mm 2 mps 761 mmHg 74%
    20:00 +5°C° 0 mm 2 mps 761 mmHg 76%
    21:00 +5°C° 0 mm 2 mps 762 mmHg 76%
    22:00 +5°C° 0 mm 2 mps 762 mmHg 77%
    23:00 +4°C° 0 mm 2 mps 763 mmHg 78%

    20 December, Thursday

    Time Temperature Precipitation Wind Pressure Humidity
    00:00 +4°C° 0 mm 2 mps 763 mmHg 78%
    01:00 +4°C° 0 mm 2 mps 763 mmHg 78%
    02:00 +4°C° 0 mm 2 mps 763 mmHg 78%
    03:00 +4°C° 0 mm 2 mps 763 mmHg 78%
    04:00 +5°C° 0 mm 1 mps 763 mmHg 78%
    05:00 +4°C° 0 mm 1 mps 763 mmHg 78%
    06:00 +4°C° 0 mm 1 mps 763 mmHg 78%
    07:00 +4°C° 0 mm 1 mps 764 mmHg 78%
    08:00 +4°C° 0 mm 1 mps 764 mmHg 79%
    09:00 +5°C° 0 mm 1 mps 764 mmHg 75%
    10:00 +7°C° 0 mm 1 mps 764 mmHg 72%
    11:00 +8°C° 0 mm 1 mps 764 mmHg 68%
    12:00 +8°C° 0 mm 1 mps 764 mmHg 67%
    13:00 +9°C° 0 mm 1 mps 763 mmHg 67%
    14:00 +10°C° 0 mm 1 mps 763 mmHg 66%
    15:00 +9°C° 0 mm 1 mps 763 mmHg 69%
    16:00 +8°C° 0 mm 1 mps 763 mmHg 72%
    17:00 +8°C° 0 mm 1 mps 763 mmHg 75%
    18:00 +8°C° 0 mm 1 mps 763 mmHg 78%
    19:00 +7°C° 0 mm 1 mps 763 mmHg 80%
    20:00 +7°C° 0 mm 1 mps 764 mmHg 82%
    21:00 +7°C° 0 mm 1 mps 764 mmHg 83%
    22:00 +6°C° 0 mm 2 mps 764 mmHg 84%
    23:00 +6°C° 0 mm 2 mps 764 mmHg 85%
    Show more